Volver al catálogo

DELTA 1 DEB

ActivoSSO
NORAD 2118·DEBRIS·🇺🇸 United States

Lanzado Feb 3, 1966 desde Cape Canaveral Space Force Station

Loading…

Próximos Pases (próximas 24 horas)

TLE

ActualizadoSource: Space-Track

Época: Sep 14, 2026, 13:57 UTC

1 02118U 66008D   26257.58152317  .00000294  00000-0  85476-4 0  9995
2 02118  98.0719  25.4859 0124543 309.2912  49.7288 14.46998564148755

Sigue DELTA 1 DEB en tiempo real con AllMySat

Download on the App Store